Other Public Products
Issued by NWS Grand Forks, ND

Home | Current Version | Previous Version | Graphics & Text | Print | Product List | Glossary On
Versions: 1 2 3 4 5 6 7 8 9 10 11 12 13 14 15 16 17 18 19 20 21 22 23 24 25 26 27 28 29 30 31 32 33 34 35 36 37 38 39 40 41 42 43 44 45 46 47 48 49 50
825
FPUS83 KFGF 270531
OPUFGF
PRAIRIE TO PINES WEATHER ROUNDUP
NATIONAL WEATHER SERVICE EASTERN NORTH DAKOTA/GRAND FORKS ND
1200 AM CDT WED JUL 27 2016

 **SATELLITE DATA USED TO AUGMENT SKY COVER AT AUTOMATED STATIONS**
 *****  WEATHER ACROSS EASTERN NORTH DAKOTA  *****

CITY           SKY/WX    TMP DP  RH WIND       PRES   REMARKS
GRAND FORKS    RAIN      67  61  81 NE12      30.01R
GRAND FORKS AF CLOUDY    66  62  86 E5        30.04R
GRAND CITY NWS   N/A     66 N/A N/A NW5         N/A
BUXTON           N/A     70  70  98 NW6         N/A
DEVILS LAKE    CLOUDY    68  64  87 N7        30.07R
FARGO          CLOUDY    69  65  86 VRB3      30.00R
WAHPETON ARPT  CLOUDY    68  61  77 NE7       29.97F
$$

 *****  WEATHER ACROSS CENTRAL AND WESTERN NORTH DAKOTA  *****

CITY           SKY/WX    TMP DP  RH WIND       PRES   REMARKS
JAMESTOWN      LGT RAIN  64  63  96 NE6       30.00F
BISMARCK       PTCLDY    68  62  81 NE8       30.03F
MINOT          MOCLDY    67  60  78 N5        30.05F
MINOT AFB      CLOUDY    68  60  76 N7        30.05F
GARRISON         N/A     65  60  84 N5        30.06S
WILLISTON      CLEAR     68  57  68 E7        30.09S
DICKINSON      CLEAR     59  56  89 NE3       30.07S
HETTINGER      CLEAR     65  59  81 NE8       30.09R
$$

 *****  OTHER OBSERVATIONS NORTHEAST NORTH DAKOTA  *****

CITY           SKY/WX    TMP DP  RH WIND       PRES   REMARKS
WALHALLA       FAIR      63  59  88 N7        30.08S
LANGDON        FAIR      64  61  88 NE10      30.09S
CAVALIER       FAIR      66  61  82 N8        30.06R
GRAFTON        FAIR      68  64  88 N7        30.05R
CANDO          FAIR      64  63  94 NE8       30.09F
FORT TOTTEN      N/A     65  65 100 NE2       29.95S
ROLLA          CLOUDY    63  57  82 NE8       30.11S
RUGBY          NOT AVBL
 ***** THE ABOVE OBSERVATIONS ARE NON NWS ARE NOT QUALITY
        CONTROLLED AND MAY MIS-REPORT RAIN FOR SNOW...
$$

 *****  OTHER OBSERVATIONS SOUTHEAST NORTH DAKOTA *****

CITY           SKY/WX    TMP DP  RH WIND       PRES   REMARKS
COOPERSTOWN    NOT AVBL
VALLEY CITY    LGT RAIN  64  64 100 N13       30.03F
OAKES            N/A    N/A N/A N/A MISG        N/A
GWINNER        MOCLDY    70  66  88 NE7       29.99F
BUFFALO          N/A     66  63  91 N10         N/A
WYNDMERE         N/A     70  64  83 NE6         N/A
 ***** THE ABOVE OBSERVATIONS ARE NON NWS ARE NOT QUALITY
       CONTROLLED AND MAY MIS-REPORT RAIN FOR SNOW...
$$

  *****  WEATHER ACROSS NORTHERN MINNESOTA  *****

CITY           SKY/WX    TMP DP  RH WIND       PRES   REMARKS
FLAG ISLAND    PTCLDY    70  55  60 N9        30.02S
WARROAD        CLOUDY    68  57  68 N7        30.05R
ROSEAU         MOCLDY    66  59  77 N6        30.05R
HALLOCK        CLOUDY    66  61  82 NE6       30.04R
THF RVR FALLS  CLOUDY    70  57  64 NE10      30.03R
HALSTAD          N/A     68  66  95 NE7         N/A
FOSSTON        CLOUDY    66  63  88 S3        30.03R
BAUDETTE       CLOUDY    68  58  70 N7        30.02R
WASKISH        CLOUDY    66  63  88 CALM      30.02R
CROOKSTON      DRIZZLE   68  64  88 N9        30.03R
$$
  *****  WEATHER ACROSS CENTRAL AND WEST MINNESOTA  *****

CITY           SKY/WX    TMP DP  RH WIND       PRES   REMARKS
BEMIDJI        CLOUDY    72  61  68 N5        30.02R
PARK RAPIDS    CLOUDY    72  69  90 CALM      30.00R
WADENA         CLOUDY    66  64  94 CALM      29.97F
DETROIT LAKES  RAIN      66  63  88 N8        30.00F
MOORHEAD       CLOUDY    68  64  88 NE3       30.00F
FERGUS FALLS   CLOUDY    70  61  73 N9        29.98F
ELBOW LAKE     MOCLDY    71  65  81 N5        29.98F
MORRIS MN      CLOUDY    70  66  88 NE5       29.97F
STAPLES        CLOUDY    66  61  82 CALM      29.99F
WHEATON        CLOUDY    72  66  83 NE3       29.98F
$$
  *****  WEATHER ELSEWHERE ACROSS MINNESOTA  *****

CITY           SKY/WX    TMP DP  RH WIND       PRES   REMARKS
DULUTH         CLOUDY    72  67  84 N7        29.97F
INTRNTL FALLS  CLOUDY    64  59  83 N5        30.00R
ELY            CLOUDY    63  61  94 CALM      30.00S
CLOQUET        CLOUDY    68  61  77 CALM      29.99R
BRAINERD       MOCLDY    64  63  96 S6        30.00R
HIBBING        CLOUDY    65  61  87 CALM      29.99R
ALEXANDRIA     CLOUDY    72  68  87 SW6       30.00S
SAINT CLOUD    CLOUDY    68  65  90 NW6       29.99R
MINNEAPOLIS    CLOUDY    80  68  66 SW7       29.99S
$$

  *****  WEATHER ACROSS SOUTH DAKOTA  *****

CITY           SKY/WX    TMP DP  RH WIND       PRES   REMARKS
SIOUX FALLS    CLOUDY    76  64  66 S12       29.97F
BROOKINGS      CLOUDY    72  68  87 SE8       29.97F
WATERTOWN      CLOUDY    72  64  76 E8        29.97F
HURON          CLOUDY    77  66  68 SE10      29.92R
SISSETON         N/A     68  65  90 NW8       29.97F
ABERDEEN       MOCLDY    70  64  81 NE8       29.94F
MITCHELL       CLOUDY    80  66  62 VRB5      29.94R
PIERRE         CLOUDY    70  63  78 W7        29.94S
MOBRIDGE       MOCLDY    71  64  78 N10       29.96F
RAPID CITY     MOCLDY    70  58  65 NE8       30.07R
$$

  *****  SOME WEATHER IN NEARBY STATES *****

CITY           SKY/WX    TMP DP  RH WIND       PRES   REMARKS
GLASGOW MT     CLOUDY    69  54  58 E18       30.04F
GREAT FALLS MT CLOUDY    63  55  75 NE10      30.14S
CHEYENNE WY    CLEAR     65  46  50 S6        30.22F
SCOTTSBLUFF NE MOCLDY    67  57  70 N8        30.04F
OMAHA NE       PTCLDY    76  67  73 SE7       30.01F
DES MOINES IA  CLEAR     76  65  68 CALM      30.02S
DAVENPORT IA   CLEAR     67  64  90 CALM      30.03S
CHICAGO IL     CLEAR     73  64  73 S3        30.01S
EAU CLAIRE WI  PTCLDY    74  68  81 VRB6      30.00R
LA CROSSE WI   CLEAR     77  70  79 CALM      29.99S
$$

  *****  SOME NATIONAL WEATHER *****

CITY           SKY/WX    TMP DP  RH WIND       PRES   REMARKS
LA GUARDIA NY  PTCLDY    81  63  54 N7        29.91F
RALEIGH NC     CLOUDY    78  75  90 W3        29.98S
ATLANTA GA     PTCLDY    80  72  76 SW6       30.07S
NEW ORLEANS LA CLOUDY    80  73  79 S8        29.99R
OKLAHOMA CITY  MOCLDY    77  74  90 SE6       29.97F
ALBUQUERQUE NM CLOUDY    78  55  44 S13       30.21R
SALT LAKE CITY CLEAR     85  29  13 NW7       30.03R
LOS ANGELES CA PTCLDY    70  65  84 W6        29.89R
BOISE ID       CLEAR     86  40  19 CALM      29.94R
SEATTLE WA     CLEAR     69  61  75 NW5       30.11R
$$

*** WEATHER ACROSS MANITOBA...SASKATCHEWAN AND ONTARIO ***
                ***ONTARIO***

CITY           SKY/WX    TMP DP  RH WIND       PRES   REMARKS
GERALDTON      CLEAR     64  52  63 N8        29.95R
THUNDER BAY    CLEAR     64  55  72 W3        29.95R
SIOUX LOOKOUT  PTCLDY    63  54  72 N3        30.03R
TORONTO        CLEAR     73  59  60 NW2       29.97R
BIG TROUT LK   NOT AVBL
PICKLE LAKE    NOT AVBL
DRYDEN         CLEAR     64  54  68 NE9       30.03R
KENORA         PTCLDY    66  52  59 N7        30.04R
$$
                *** MANITOBA***

CITY           SKY/WX    TMP DP  RH WIND       PRES   REMARKS
BRANDON        MOCLDY    57  55  94 N5        30.12R
DAUPHIN        CLEAR     54  50  87 CALM      30.13R
ISLAND LAKE    PTCLDY    57  55  94 N6        30.12S
PILOT MOUND      N/A     63  55  77 NE8         N/A
THE PAS        CLEAR     59  54  82 E5        30.14S
THOMPSON       CLEAR     48  48 100 NE3       30.16R
WINNIPEG       PTCLDY    57  54  88 N6        30.08R
LYNN LAKE      CLEAR     55  48  76 MISG      30.13R
CHURCHILL      PTCLDY    48  48 100 N8        30.12S
GILLAM         MOCLDY    57  50  77 N12       30.13S
$$
                ***SASKATCHEWAN***

CITY           SKY/WX    TMP DP  RH WIND       PRES   REMARKS
ESTEVAN        PTCLDY    59  55  88 NE6       30.10F
KINDERSLEY     PTCLDY    59  55  88 E8        30.11F
LLOYDMINSTER   PTCLDY    64  55  72 S9        30.10R
PRINCE ALBERT  PTCLDY    63  57  82 VRB2      30.11S
REGINA         CLEAR     64  52  63 E9        30.12
YORKTON        CLEAR     59  54  82 E6        30.14R
N. BATTLEFORD  PTCLDY    59  52  77 SE6       30.14R  C1F1C2F2C3F3C4F4C5F5C6F6C7F7C8F8C9F9CaFaCbFbCcFcCdFdCe!



USA.gov is the U.S. government's official web portal to all federal, state and local government web resources and services.